Time,TemperatureF,DewpointF,PressureIn,WindDirection,WindDirectionDegrees,WindSpeedMPH,WindSpeedGustMPH,Humidity,HourlyPrecipIn,Conditions,Clouds,dailyrainin,SoftwareType,DateUTC
2013-06-06 00:02:00,54.0,54.0,-100.00,NNE,20,5.0,11.0,98,0.00,,,0.00,,2013-06-06 05:02:00,
2013-06-06 00:12:00,54.0,54.0,-100.00,North,5,3.0,10.0,98,0.00,,,0.00,,2013-06-06 05:12:00,
2013-06-06 01:12:00,53.0,52.0,-100.00,NNE,15,6.0,8.0,99,0.00,,,0.00,,2013-06-06 06:12:00,
2013-06-06 01:22:00,53.0,52.0,-100.00,NNE,15,6.0,8.0,99,0.00,,,0.00,,2013-06-06 06:22:00,
2013-06-06 01:32:00,52.0,52.0,-100.00,NNE,20,6.0,11.0,99,0.00,,,0.00,,2013-06-06 06:32:00,
2013-06-06 01:42:00,52.0,52.0,-100.00,NNE,25,7.0,13.0,99,0.00,,,0.00,,2013-06-06 06:42:00,
2013-06-06 01:52:00,52.0,52.0,-100.00,NNE,25,6.0,9.0,99,0.00,,,0.00,,2013-06-06 06:52:00,
2013-06-06 02:02:00,52.0,52.0,-100.00,North,5,4.0,10.0,99,0.00,,,0.00,,2013-06-06 07:02:00,
2013-06-06 03:42:00,51.0,50.0,-100.00,North,5,4.0,8.0,99,0.00,,,0.00,,2013-06-06 08:42:00,
2013-06-06 03:52:00,51.0,50.0,-100.00,NNE,15,4.0,7.0,99,0.00,,,0.00,,2013-06-06 08:52:00,
2013-06-06 04:02:00,51.0,50.0,-100.00,North,5,4.0,7.0,99,0.00,,,0.00,,2013-06-06 09:02:00,
2013-06-06 04:12:00,51.0,50.0,-100.00,NNE,15,4.0,7.0,99,0.00,,,0.00,,2013-06-06 09:12:00,
2013-06-06 04:22:00,51.0,50.0,-100.00,North,0,2.0,6.0,99,0.00,,,0.00,,2013-06-06 09:22:00,
2013-06-06 04:33:00,51.0,50.0,-100.00,NNE,30,2.0,5.0,99,0.00,,,0.00,,2013-06-06 09:33:00,
2013-06-06 04:43:00,51.0,50.0,-100.00,NNE,30,3.0,7.0,99,0.00,,,0.00,,2013-06-06 09:43:00,
2013-06-06 04:53:00,51.0,50.0,-100.00,NNE,15,2.0,6.0,99,0.00,,,0.00,,2013-06-06 09:53:00,
2013-06-06 05:03:00,51.0,50.0,-100.00,NNE,20,6.0,9.0,99,0.00,,,0.00,,2013-06-06 10:03:00,
2013-06-06 05:12:00,51.0,50.0,-100.00,NNE,30,4.0,6.0,99,0.00,,,0.00,,2013-06-06 10:12:00,
2013-06-06 05:22:00,50.0,50.0,-100.00,North,10,4.0,7.0,99,0.00,,,0.00,,2013-06-06 10:22:00,
2013-06-06 05:33:00,50.0,50.0,-100.00,NNE,20,3.0,6.0,99,0.00,,,0.00,,2013-06-06 10:33:00,
2013-06-06 05:42:00,50.0,50.0,-100.00,North,10,4.0,6.0,99,0.00,,,0.00,,2013-06-06 10:42:00,
2013-06-06 05:52:00,50.0,50.0,-100.00,North,350,3.0,7.0,99,0.00,,,0.00,,2013-06-06 10:52:00,
2013-06-06 06:02:00,50.0,50.0,-100.00,North,5,2.0,8.0,99,0.00,,,0.00,,2013-06-06 11:02:00,
2013-06-06 06:12:00,50.0,50.0,-100.00,North,5,6.0,10.0,99,0.00,,,0.00,,2013-06-06 11:12:00,
2013-06-06 06:52:00,50.0,50.0,-100.00,NNE,20,4.0,9.0,99,0.00,,,0.00,,2013-06-06 11:52:00,
2013-06-06 07:02:00,50.0,50.0,-100.00,North,0,4.0,10.0,99,0.00,,,0.00,,2013-06-06 12:02:00,
2013-06-06 07:12:00,50.0,50.0,-100.00,NNE,20,6.0,9.0,99,0.00,,,0.00,,2013-06-06 12:12:00,
2013-06-06 07:22:00,50.0,50.0,-100.00,NNE,25,5.0,8.0,99,0.00,,,0.00,,2013-06-06 12:22:00,
2013-06-06 07:32:00,50.0,50.0,-100.00,North,0,5.0,10.0,99,0.00,,,0.00,,2013-06-06 12:32:00,
2013-06-06 08:12:00,50.0,50.0,-100.00,NNE,15,4.0,11.0,99,0.00,,,0.00,,2013-06-06 13:12:00,
2013-06-06 08:22:00,50.0,50.0,-100.00,North,5,4.0,7.0,99,0.00,,,0.00,,2013-06-06 13:22:00,
2013-06-06 08:32:00,50.0,50.0,-100.00,North,5,5.0,9.0,99,0.00,,,0.00,,2013-06-06 13:32:00,
2013-06-06 08:42:00,50.0,50.0,-100.00,North,0,3.0,9.0,99,0.00,,,0.00,,2013-06-06 13:42:00,
2013-06-06 08:52:00,50.0,50.0,-100.00,North,10,3.0,7.0,99,0.00,,,0.00,,2013-06-06 13:52:00,
2013-06-06 09:03:00,50.0,50.0,-100.00,North,0,3.0,9.0,99,0.00,,,0.00,,2013-06-06 14:03:00,
2013-06-06 09:12:00,50.0,50.0,-100.00,North,5,4.0,9.0,99,0.00,,,0.00,,2013-06-06 14:12:00,
2013-06-06 09:22:00,50.0,50.0,-100.00,North,355,3.0,9.0,99,0.00,,,0.00,,2013-06-06 14:22:00,
2013-06-06 09:33:00,50.0,50.0,-100.00,NNE,15,3.0,8.0,99,0.00,,,0.00,,2013-06-06 14:33:00,
2013-06-06 09:43:00,51.0,50.0,-100.00,NNE,15,4.0,7.0,99,0.00,,,0.00,,2013-06-06 14:43:00,
2013-06-06 09:52:00,51.0,50.0,-100.00,NNE,25,4.0,6.0,99,0.00,,,0.00,,2013-06-06 14:52:00,
2013-06-06 10:03:00,51.0,50.0,-100.00,North,5,4.0,7.0,99,0.00,,,0.00,,2013-06-06 15:03:00,
2013-06-06 10:13:00,51.0,50.0,-100.00,North,0,4.0,8.0,99,0.00,,,0.00,,2013-06-06 15:13:00,
2013-06-06 11:23:00,52.0,52.0,-100.00,North,0,4.0,7.0,99,0.00,,,0.00,,2013-06-06 16:23:00,
2013-06-06 11:33:00,52.0,52.0,-100.00,North,0,4.0,9.0,99,0.00,,,0.00,,2013-06-06 16:33:00,
2013-06-06 11:43:00,52.0,52.0,-100.00,North,5,4.0,7.0,99,0.00,,,0.00,,2013-06-06 16:43:00,
2013-06-06 11:52:00,53.0,52.0,-100.00,North,0,4.0,6.0,99,0.00,,,0.00,,2013-06-06 16:52:00,
2013-06-06 12:03:00,53.0,52.0,-100.00,NNE,25,6.0,7.0,99,0.00,,,0.00,,2013-06-06 17:03:00,
2013-06-06 12:52:00,53.0,52.0,-100.00,NNE,20,3.0,9.0,97,0.00,,,0.00,,2013-06-06 17:52:00,
2013-06-06 13:03:00,53.0,52.0,-100.00,North,10,5.0,9.0,96,0.00,,,0.00,,2013-06-06 18:03:00,
2013-06-06 13:13:00,53.0,52.0,-100.00,North,10,3.0,9.0,96,0.00,,,0.00,,2013-06-06 18:13:00,
2013-06-06 13:23:00,54.0,52.0,-100.00,NNE,15,6.0,9.0,95,0.00,,,0.00,,2013-06-06 18:23:00,
2013-06-06 13:33:00,54.0,54.0,-100.00,North,0,4.0,9.0,95,0.00,,,0.00,,2013-06-06 18:33:00,
2013-06-06 13:43:00,54.0,52.0,-100.00,NNE,30,6.0,9.0,93,0.00,,,0.00,,2013-06-06 18:43:00,
2013-06-06 13:52:00,54.0,52.0,-100.00,NNE,25,5.0,8.0,93,0.00,,,0.00,,2013-06-06 18:52:00,
2013-06-06 14:03:00,54.0,52.0,-100.00,NNE,15,4.0,9.0,92,0.00,,,0.00,,2013-06-06 19:03:00,
2013-06-06 14:12:00,54.0,52.0,-100.00,North,10,6.0,12.0,92,0.00,,,0.00,,2013-06-06 19:12:00,
2013-06-06 14:23:00,54.0,52.0,-100.00,NNE,15,4.0,8.0,92,0.00,,,0.00,,2013-06-06 19:23:00,
2013-06-06 14:33:00,54.0,52.0,-100.00,North,0,6.0,9.0,92,0.00,,,0.00,,2013-06-06 19:33:00,
2013-06-06 14:42:00,54.0,52.0,-100.00,NNE,20,5.0,9.0,92,0.00,,,0.00,,2013-06-06 19:42:00,
2013-06-06 14:52:00,54.0,52.0,-100.00,North,5,4.0,11.0,92,0.00,,,0.00,,2013-06-06 19:52:00,
2013-06-06 15:03:00,55.0,52.0,-100.00,NNE,25,6.0,9.0,91,0.00,,,0.00,,2013-06-06 20:03:00,
2013-06-06 15:13:00,55.0,52.0,-100.00,North,5,4.0,9.0,91,0.00,,,0.00,,2013-06-06 20:13:00,
2013-06-06 15:22:00,55.0,52.0,-100.00,North,0,7.0,12.0,90,0.00,,,0.00,,2013-06-06 20:22:00,
2013-06-06 15:33:00,55.0,52.0,-100.00,North,0,6.0,12.0,90,0.00,,,0.00,,2013-06-06 20:33:00,
2013-06-06 15:42:00,55.0,52.0,-100.00,NE,40,6.0,8.0,89,0.00,,,0.00,,2013-06-06 20:42:00,
2013-06-06 15:52:00,55.0,52.0,-100.00,NNE,20,6.0,10.0,88,0.00,,,0.00,,2013-06-06 20:52:00,
2013-06-06 16:03:00,56.0,52.0,-100.00,NE,35,4.0,11.0,87,0.00,,,0.00,,2013-06-06 21:03:00,
2013-06-06 16:12:00,56.0,52.0,-100.00,NE,35,6.0,10.0,86,0.00,,,0.00,,2013-06-06 21:12:00,
2013-06-06 16:22:00,56.0,52.0,-100.00,NNE,30,4.0,11.0,85,0.00,,,0.00,,2013-06-06 21:22:00,
2013-06-06 16:33:00,56.0,52.0,-100.00,NNE,20,5.0,9.0,85,0.00,,,0.00,,2013-06-06 21:33:00,
2013-06-06 16:43:00,56.0,52.0,-100.00,NNE,25,4.0,9.0,86,0.00,,,0.00,,2013-06-06 21:43:00,
2013-06-06 16:53:00,56.0,52.0,-100.00,NE,35,6.0,9.0,86,0.00,,,0.00,,2013-06-06 21:53:00,
2013-06-06 17:03:00,56.0,52.0,-100.00,North,5,3.0,8.0,86,0.00,,,0.00,,2013-06-06 22:03:00,
2013-06-06 17:13:00,56.0,52.0,-100.00,North,10,2.0,6.0,86,0.00,,,0.00,,2013-06-06 22:13:00,
2013-06-06 17:23:00,56.0,52.0,-100.00,NNE,20,6.0,8.0,86,0.00,,,0.00,,2013-06-06 22:23:00,
2013-06-06 17:33:00,56.0,52.0,-100.00,NNE,25,5.0,10.0,86,0.00,,,0.00,,2013-06-06 22:33:00,
2013-06-06 17:43:00,56.0,52.0,-100.00,North,10,4.0,7.0,86,0.00,,,0.00,,2013-06-06 22:43:00,
2013-06-06 17:52:00,56.0,52.0,-100.00,NNE,15,3.0,8.0,86,0.00,,,0.00,,2013-06-06 22:52:00,
2013-06-06 18:02:00,56.0,52.0,-100.00,NNE,30,4.0,7.0,86,0.00,,,0.00,,2013-06-06 23:02:00,
2013-06-06 18:12:00,56.0,52.0,-100.00,NNE,20,2.0,7.0,85,0.00,,,0.00,,2013-06-06 23:12:00,
2013-06-06 18:22:00,56.0,52.0,-100.00,NNE,15,4.0,8.0,84,0.00,,,0.00,,2013-06-06 23:22:00,
2013-06-06 18:33:00,56.0,52.0,-100.00,NNE,20,4.0,9.0,84,0.00,,,0.00,,2013-06-06 23:33:00,
2013-06-06 18:42:00,56.0,52.0,-100.00,North,10,6.0,9.0,85,0.00,,,0.00,,2013-06-06 23:42:00,
2013-06-06 18:52:00,55.0,52.0,-100.00,North,5,5.0,10.0,87,0.00,,,0.00,,2013-06-06 23:52:00,
2013-06-06 19:02:00,55.0,52.0,-100.00,North,5,3.0,7.0,88,0.00,,,0.00,,2013-06-07 00:02:00,
2013-06-06 19:12:00,55.0,52.0,-100.00,NNE,25,4.0,9.0,88,0.00,,,0.00,,2013-06-07 00:12:00,
2013-06-06 19:22:00,55.0,54.0,-100.00,NNE,15,4.0,9.0,92,0.00,,,0.00,,2013-06-07 00:22:00,
2013-06-06 19:32:00,54.0,54.0,-100.00,North,10,3.0,7.0,95,0.00,,,0.00,,2013-06-07 00:32:00,
2013-06-06 19:42:00,54.0,54.0,-100.00,North,10,3.0,7.0,96,0.00,,,0.00,,2013-06-07 00:42:00,
2013-06-06 19:52:00,54.0,54.0,-100.00,North,10,4.0,6.0,97,0.00,,,0.00,,2013-06-07 00:52:00,
2013-06-06 20:02:00,54.0,54.0,-100.00,NNE,20,4.0,9.0,97,0.00,,,0.00,,2013-06-07 01:02:00,
2013-06-06 20:12:00,54.0,54.0,-100.00,NNE,25,4.0,6.0,98,0.00,,,0.00,,2013-06-07 01:12:00,
2013-06-06 20:22:00,54.0,54.0,-100.00,North,10,2.0,6.0,98,0.00,,,0.00,,2013-06-07 01:22:00,
2013-06-06 20:32:00,54.0,54.0,-100.00,North,5,4.0,7.0,98,0.00,,,0.00,,2013-06-07 01:32:00,
2013-06-06 20:42:00,54.0,54.0,-100.00,North,10,2.0,6.0,98,0.00,,,0.00,,2013-06-07 01:42:00,
2013-06-06 20:52:00,54.0,54.0,-100.00,NW,325,2.0,4.0,98,0.00,,,0.00,,2013-06-07 01:52:00,
2013-06-06 21:02:00,54.0,54.0,-100.00,North,0,2.0,6.0,98,0.00,,,0.00,,2013-06-07 02:02:00,
2013-06-06 21:12:00,54.0,54.0,-100.00,NNE,20,3.0,6.0,98,0.00,,,0.00,,2013-06-07 02:12:00,
2013-06-06 21:22:00,54.0,54.0,-100.00,North,5,3.0,6.0,97,0.00,,,0.00,,2013-06-07 02:22:00,
2013-06-06 21:32:00,54.0,54.0,-100.00,NNE,25,3.0,6.0,96,0.00,,,0.00,,2013-06-07 02:32:00,
2013-06-06 21:42:00,54.0,52.0,-100.00,NNE,30,3.0,6.0,95,0.00,,,0.00,,2013-06-07 02:42:00,
2013-06-06 21:52:00,54.0,52.0,-100.00,NNE,15,3.0,6.0,95,0.00,,,0.00,,2013-06-07 02:52:00,
2013-06-06 22:02:00,54.0,52.0,-100.00,North,0,2.0,6.0,95,0.00,,,0.00,,2013-06-07 03:02:00,
2013-06-06 22:12:00,54.0,52.0,-100.00,North,10,2.0,6.0,95,0.00,,,0.00,,2013-06-07 03:12:00,
2013-06-06 22:22:00,54.0,52.0,-100.00,North,10,3.0,5.0,95,0.00,,,0.00,,2013-06-07 03:22:00,
2013-06-06 22:33:00,54.0,52.0,-100.00,North,5,3.0,7.0,95,0.00,,,0.00,,2013-06-07 03:33:00,
2013-06-06 22:43:00,54.0,52.0,-100.00,NNE,15,3.0,6.0,95,0.00,,,0.00,,2013-06-07 03:43:00,
2013-06-06 22:53:00,54.0,52.0,-100.00,North,0,3.0,7.0,95,0.00,,,0.00,,2013-06-07 03:53:00,
2013-06-06 23:03:00,54.0,52.0,-100.00,NNE,15,3.0,6.0,95,0.00,,,0.00,,2013-06-07 04:03:00,
2013-06-06 23:12:00,54.0,52.0,-100.00,North,10,2.0,5.0,95,0.00,,,0.00,,2013-06-07 04:12:00,
2013-06-06 23:22:00,54.0,52.0,-100.00,NNE,30,3.0,6.0,95,0.00,,,0.00,,2013-06-07 04:22:00,
2013-06-06 23:33:00,54.0,52.0,-100.00,NNE,15,4.0,6.0,95,0.00,,,0.00,,2013-06-07 04:33:00,
2013-06-06 23:42:00,54.0,52.0,-100.00,NNE,20,1.0,4.0,95,0.00,,,0.00,,2013-06-07 04:42:00,
2013-06-06 23:53:00,54.0,52.0,-100.00,NNE,25,4.0,6.0,95,0.00,,,0.00,,2013-06-07 04:53:00,